Regional Weather Roundup
Issued by NWS

Home | Current Version | Previous Version | Graphics & Text | Print | Product List | Glossary On
Versions: 1 2 3 4 5 6 7 8 9 10 11 12 13 14 15 16 17 18 19 20 21 22 23 24 25 26 27 28 29 30 31 32 33 34 35 36 37 38 39 40 41 42 43 44 45 46 47 48 49 50
000
ASUS43 KIND 261459
RWRIN

WEATHER ROUNDUP FOR INDIANA
NATIONAL WEATHER SERVICE INDIANAPOLIS IN
1000 AM EST SUN FEB 26 2017

NOTE: "FAIR" INDICATES FEW OR NO CLOUDS BELOW 12,000 FEET WITH NO
SIGNIFICANT WEATHER AND/OR OBSTRUCTIONS TO VISIBILITY.

* - STATION DOES NOT REPORT WEATHER SUCH AS PRECIPITATION OR FOG.

+ - STATION NOT QUALITY CONTROLLED BY THE NATIONAL WEATHER SERVICE.
    USE DATA WITH CAUTION...ESPECIALLY DEWPOINT AND RELATIVE
    HUMIDITY OBSERVATIONS.

INZ001>003-010>013-019-020-261600-
NORTHWEST INDIANA

CITY           SKY/WX    TMP DP  RH WIND       PRES   REMARKS
GARY /AIRPORT/ MOSUNNY   32  16  51 S10       30.05S WCI  24
KNOX *+        PTSUNNY   30   3  31 S18       30.09R WCI  18

$$

LMZ046-743>745-261600-
SOUTHERN LAKE MICHIGAN

STATION/POSITION TIME  TEMP    WIND        PRES    WAVE
                       AIR SEA DIR/SP/G            HT
                 (UTC) (F)     (DEG/KT/KT) (MB)    (FT)
BURNS HARBOR     1440   29     190/ 15/ 21 1017.9R
MICHIGAN CITY    1430   27     160/ 15/ 20   N/A

$$

INZ004-005-014>016-021>024-261600-
NORTH CENTRAL INDIANA

CITY           SKY/WX    TMP DP  RH WIND       PRES   REMARKS
GOSHEN         SUNNY     29  15  56 S16       30.08F WCI  17
SOUTH BEND     CLOUDY    28  18  66 S12       30.07S WCI  18

$$

INZ006>009-017-018-025>027-261600-
NORTHEAST INDIANA

CITY           SKY/WX    TMP DP  RH WIND       PRES   REMARKS
ANGOLA *+      SUNNY     27  19  74 SW10      30.08S WCI  17
FORT WAYNE     MOSUNNY   28  19  69 S13       30.12F WCI  17
KENDALLVILLE + SUNNY     28  17  62 SW13      30.09S WCI  17

$$

INZ028-029-035-036-043>045-051>053-261600-
WEST CENTRAL INDIANA

CITY           SKY/WX    TMP DP  RH WIND       PRES   REMARKS
LAFAYETTE      SUNNY     30  22  72 VRB7      30.14R WCI  23
TERRE HAUTE    SUNNY     33  19  56 S14       30.19R WCI  23

$$

INZ030>032-037>040-046>048-054>057-064-065-261600-
CENTRAL INDIANA

CITY           SKY/WX    TMP DP  RH WIND       PRES   REMARKS
GREENWOOD *+   SUNNY     32  20  61 S9        30.20R WCI  24
INDIANAPOLIS   MOSUNNY   31  19  61 S10       30.18R WCI  22
-EAGLE CREEK   SUNNY     30  18  60 S9        30.18R WCI  22
KOKOMO +       MOSUNNY   30  22  72 S13       30.15R WCI  20
MT COMFORT *+  SUNNY     30  19  64 S10       30.18R WCI  21
SHELBYVILLE    SUNNY     32  19  58 S13       30.19R WCI  22

$$

INZ033-034-041-042-049-050-058-059-261600-
EAST CENTRAL INDIANA

CITY           SKY/WX    TMP DP  RH WIND       PRES   REMARKS
MUNCIE         SUNNY     29  18  63 S12       30.15S WCI  19

$$

INZ060-061-067>069-081>083-085>088-261600-
SOUTHWEST INDIANA

CITY           SKY/WX    TMP DP  RH WIND       PRES   REMARKS
EVANSVILLE     SUNNY     35  17  47 SE10      30.23S WCI  27
HUNTINGBURG *+ SUNNY     34  21  60 SE7       30.23S WCI  28

$$

INZ062-063-066-070>080-084-089>092-261600-
SOUTH CENTRAL AND SOUTHEAST INDIANA

CITY           SKY/WX    TMP DP  RH WIND       PRES   REMARKS
BLOOMINGTON    SUNNY     32  17  54 SE10      30.19R WCI  24
MADISON *+     SUNNY     32  19  59 S6        30.24R WCI  26
SEYMOUR +      SUNNY     34  19  55 S9        30.24R WCI  26

$$




USA.gov is the U.S. government's official web portal to all federal, state and local government web resources and services.